Date String (YYYY-MM-DD hh:mm:ss) UTC,Instrument flags,Ambient pressure (hPa),Sample flow (lpm),Bypass flow (lpm),Sample temperature (°C),Ambient temperature (°C),ASC tube jacket temperature (°C),LED temperature (°C),Box temperature (°C),Sample RH (%),Span deviation,Mass concentration (μg/m³),Mass concentration (μg/m³),Mass concentration (μg/m³)
DateTimeUTC,F1_M11,P_M11,Q1_M11,Q2_M11,T1_M11,T2_M11,T3_M11,T4_M11,T5_M11,U1_M11,ZSPAN_M11,X0_M11,X2_M11,X1_M11
2022-03-05 21:00:00,,0819.8,5.00,0.00,22.5,21.8,00.0,31.6,24.2,12.9,0000.0,0008.38,0004.55,0004.27
2022-03-05 21:01:00,,0819.8,4.99,0.00,22.5,21.7,00.0,31.6,24.2,13.0,0000.0,0008.20,0004.54,0004.29
2022-03-05 21:02:00,,0819.9,5.01,0.00,22.5,21.7,00.0,31.6,24.2,12.9,0000.0,0008.15,0004.57,0004.30
2022-03-05 21:03:00,,0819.9,5.00,0.00,22.4,21.6,00.0,31.5,24.1,13.2,0000.0,0007.97,0004.61,0004.32
2022-03-05 21:04:00,,0820.0,4.99,0.00,22.4,21.6,00.0,31.5,24.1,13.0,0000.0,0007.96,0004.61,0004.34
2022-03-05 21:05:00,,0819.9,5.01,0.00,22.4,21.6,00.0,31.5,24.1,12.9,0000.0,0007.98,0004.62,0004.35
2022-03-05 21:06:00,,0819.9,4.99,0.00,22.4,21.6,00.0,31.5,24.2,12.9,0000.0,0007.99,0004.62,0004.35
2022-03-05 21:07:00,,0819.9,5.00,0.00,22.4,21.6,00.0,31.5,24.2,12.9,0000.1,0007.63,0004.66,0004.37
2022-03-05 21:08:00,,0819.9,5.00,0.00,22.4,21.6,00.0,31.5,24.1,12.7,0000.2,0007.63,0004.69,0004.38
2022-03-05 21:09:00,,0819.9,5.00,0.00,22.5,21.9,00.0,31.5,24.2,12.6,0000.0,0007.63,0004.69,0004.40
2022-03-05 21:10:00,,0820.0,5.01,0.00,22.6,22.7,00.0,31.5,24.5,12.6,0000.0,0007.37,0004.68,0004.41
2022-03-05 21:11:00,,0820.0,4.99,0.00,22.7,23.2,00.0,31.6,24.7,12.7,0000.0,0007.22,0004.69,0004.42
2022-03-05 21:12:00,,0820.0,5.00,0.00,22.8,23.0,00.0,31.6,24.8,12.8,0000.0,0007.22,0004.70,0004.43
2022-03-05 21:13:00,,0819.9,5.00,0.00,22.8,22.9,00.0,31.6,24.8,12.7,0000.0,0007.48,0004.73,0004.44
2022-03-05 21:14:00,,0819.9,4.99,0.00,22.8,22.7,00.0,31.6,24.7,12.6,0000.0,0007.55,0004.74,0004.45
2022-03-05 21:15:00,,0819.9,4.99,0.00,22.8,22.6,00.0,31.6,24.7,12.7,0000.0,0008.40,0004.75,0004.45
2022-03-05 21:16:00,,0820.0,5.00,0.00,22.8,22.5,00.0,31.6,24.7,12.8,0000.0,0008.77,0004.75,0004.45
2022-03-05 21:17:00,,0820.1,5.00,0.00,22.8,22.4,00.0,31.7,24.7,12.8,0000.0,0008.71,0004.73,0004.45
2022-03-05 21:18:00,,0820.2,5.00,0.00,22.8,22.3,00.0,31.7,24.6,12.9,0000.0,0008.62,0004.70,0004.46
2022-03-05 21:19:00,,0820.2,5.00,0.00,22.8,22.3,00.0,31.7,24.6,12.8,0000.0,0008.59,0004.69,0004.46
2022-03-05 21:20:00,,0820.2,5.01,0.00,22.8,22.2,00.0,31.7,24.6,12.7,0000.0,0008.61,0004.70,0004.48
2022-03-05 21:21:00,,0820.2,4.99,0.00,22.8,22.2,00.0,31.7,24.6,12.6,0000.0,0008.68,0004.71,0004.47
2022-03-05 21:22:00,,0820.2,5.02,0.00,22.8,22.2,00.0,31.7,24.6,12.6,0000.0,0008.72,0004.72,0004.47
2022-03-05 21:23:00,,0820.2,5.00,0.00,22.8,22.1,00.0,31.7,24.5,12.8,0000.0,0008.83,0004.70,0004.45
2022-03-05 21:24:00,,0820.2,5.01,0.00,22.7,22.1,00.0,31.7,24.5,12.6,0000.0,0008.87,0004.68,0004.44
2022-03-05 21:25:00,,0820.3,5.00,0.00,22.7,22.1,00.0,31.7,24.5,12.8,0000.5,0008.93,0004.65,0004.43
2022-03-05 21:26:00,,0820.2,4.99,0.00,22.7,22.1,00.0,31.7,24.5,12.8,0000.4,0008.11,0004.61,0004.42
2022-03-05 21:27:00,,0820.3,5.00,0.00,22.7,22.0,00.0,31.7,24.5,12.7,0000.0,0007.67,0004.62,0004.41
2022-03-05 21:28:00,,0820.3,4.99,0.00,22.7,22.0,00.0,31.7,24.5,12.7,0000.0,0007.76,0004.62,0004.40
2022-03-05 21:29:00,,0820.3,5.00,0.00,22.7,22.0,00.0,31.7,24.5,12.8,0000.0,0007.78,0004.62,0004.39
2022-03-05 21:30:00,,0820.3,5.00,0.00,22.7,22.0,00.0,31.7,24.4,13.1,0000.0,0007.77,0004.61,0004.39
2022-03-05 21:31:00,,0820.3,5.00,0.00,22.7,22.0,00.0,31.7,24.4,12.9,0000.0,0007.70,0004.60,0004.37
2022-03-05 21:32:00,,0820.3,4.99,0.00,22.7,21.9,00.0,31.7,24.4,12.7,0000.0,0007.65,0004.58,0004.36
2022-03-05 21:33:00,,0820.3,5.02,0.00,22.6,21.9,00.0,31.7,24.4,12.7,0000.0,0007.59,0004.57,0004.36
2022-03-05 21:34:00,,0820.3,5.00,0.00,22.6,21.9,00.0,31.7,24.4,12.8,0000.0,0007.49,0004.55,0004.35
2022-03-05 21:35:00,,0820.3,5.00,0.00,22.6,21.9,00.0,31.6,24.4,12.6,0000.0,0007.06,0004.54,0004.35
2022-03-05 21:36:00,,0820.3,4.99,0.00,22.6,21.9,00.0,31.6,24.4,12.6,0000.0,0006.79,0004.53,0004.35
2022-03-05 21:37:00,,0820.3,5.01,0.00,22.6,21.9,00.0,31.6,24.3,12.7,0000.0,0006.59,0004.53,0004.35
2022-03-05 21:38:00,,0820.4,4.99,0.00,22.6,21.9,00.0,31.6,24.3,12.7,0000.0,0006.70,0004.52,0004.35
2022-03-05 21:39:00,,0820.4,5.00,0.00,22.6,21.8,00.0,31.6,24.4,12.9,0000.0,0007.25,0004.52,0004.35
2022-03-05 21:40:00,,0820.4,4.99,0.00,22.6,21.8,00.0,31.6,24.3,12.9,0000.0,0007.21,0004.51,0004.35
2022-03-05 21:41:00,,0820.4,5.01,0.00,22.6,21.8,00.0,31.6,24.3,13.0,0000.0,0007.22,0004.51,0004.34
2022-03-05 21:42:00,,0820.4,4.99,0.00,22.6,21.8,00.0,31.6,24.3,12.9,0000.0,0007.25,0004.52,0004.34
2022-03-05 21:43:00,,0820.3,5.01,0.00,22.6,21.8,00.0,31.6,24.3,12.9,0000.0,0007.22,0004.51,0004.34
2022-03-05 21:44:00,,0820.3,4.99,0.00,22.6,21.8,00.0,31.6,24.3,12.8,0000.0,0007.49,0004.52,0004.34
2022-03-05 21:45:00,,0820.4,5.02,0.00,22.5,21.8,00.0,31.6,24.3,13.0,0000.0,0007.71,0004.55,0004.34
2022-03-05 21:46:00,,0820.3,4.99,0.00,22.5,21.8,00.0,31.6,24.3,13.0,0000.0,0007.70,0004.56,0004.34
2022-03-05 21:47:00,,0820.4,5.01,0.00,22.5,21.8,00.0,31.6,24.3,12.9,0000.0,0007.69,0004.56,0004.34
2022-03-05 21:48:00,,0820.6,5.00,0.00,22.5,21.8,00.0,31.6,24.3,13.1,0000.0,0007.71,0004.58,0004.36
2022-03-05 21:49:00,,0820.6,4.99,0.00,22.5,21.8,00.0,31.5,24.3,13.2,0000.0,0007.71,0004.61,0004.36
2022-03-05 21:50:00,,0820.6,5.01,0.00,22.5,21.7,00.0,31.5,24.3,13.5,0000.0,0007.48,0004.61,0004.37
2022-03-05 21:51:00,,0820.6,5.00,0.00,22.5,21.8,00.0,31.5,24.2,13.2,0000.0,0007.97,0004.62,0004.37
2022-03-05 21:52:00,,0820.7,4.99,0.00,22.5,21.8,00.0,31.5,24.2,13.0,0000.0,0007.96,0004.62,0004.38
2022-03-05 21:53:00,,0820.7,5.00,0.00,22.6,22.2,00.0,31.6,24.4,13.2,0000.0,0007.95,0004.63,0004.40
2022-03-05 21:54:00,,0820.7,5.00,0.00,22.7,23.0,00.0,31.6,24.6,13.1,0000.0,0007.93,0004.62,0004.40
2022-03-05 21:55:00,,0820.7,5.01,0.00,22.8,23.3,00.0,31.6,24.8,12.9,0000.0,0007.73,0004.62,0004.40
2022-03-05 21:56:00,,0820.6,4.99,0.00,22.8,23.0,00.0,31.6,24.8,12.9,0000.0,0007.60,0004.62,0004.40
2022-03-05 21:57:00,,0820.6,5.00,0.00,22.8,22.9,00.0,31.7,24.7,12.8,0000.0,0007.62,0004.61,0004.40
2022-03-05 21:58:00,,0820.7,5.00,0.00,22.8,22.7,00.0,31.7,24.7,12.9,0000.0,0007.67,0004.62,0004.40
2022-03-05 21:59:00,,0820.7,5.00,0.00,22.8,22.6,00.0,31.7,24.6,12.7,0000.0,0007.69,0004.64,0004.40
